Location: Karlovy Vary
(50.2170°N, 12.9000°E)
Time: 17:03:54
(UTC+02:00)

ISS - Visible Passes

Search period start: 13 July 2025 00:00
Search period end: 23 July 2025 00:00
Orbit: 413 x 417 km, 51.6° (Epoch: 13 July)

Date Brightness Start Highest point End Pass type
(mag) Time Alt. Az. Time Alt. Az. Time Alt. Az.
13 Jul -3.6 00:24:20 10° WNW 00:27:41 74° N 00:30:33 13° E visible
13 Jul -2.8 02:01:07 10° W 02:03:20 32° WSW 02:03:20 32° WSW visible
13 Jul -3.8 21:58:35 10° WSW 22:01:57 88° SSE 22:05:18 10° ENE visible
13 Jul -3.5 23:35:26 10° W 23:38:47 67° N 23:42:07 10° E visible
14 Jul -3.7 01:12:13 10° WNW 01:15:19 57° SW 01:15:19 57° SW visible
14 Jul -3.4 22:46:31 10° W 22:49:51 66° N 22:53:11 10° E visible
15 Jul -3.9 00:23:18 10° WNW 00:26:40 78° SSW 00:27:33 45° ESE visible
15 Jul -3.4 21:57:34 10° W 22:00:55 70° N 22:04:15 10° ENE visible
15 Jul -3.8 23:34:24 10° WNW 23:37:46 84° NNE 23:39:55 20° ESE visible
16 Jul -2.0 01:11:17 10° W 01:12:45 21° WSW 01:12:45 21° WSW visible
16 Jul -3.6 22:45:28 10° WNW 22:48:49 72° N 22:52:09 10° E visible
17 Jul -3.3 00:22:15 10° W 00:25:11 43° SW 00:25:11 43° SW visible
17 Jul -3.4 21:56:30 10° W 21:59:50 67° N 22:03:10 10° E visible
17 Jul -3.8 23:33:16 10° WNW 23:36:35 62° SSW 23:37:41 37° SE visible
18 Jul -3.9 22:44:18 10° WNW 22:47:39 82° SSW 22:50:12 16° ESE visible
19 Jul -1.9 00:21:21 10° W 00:23:02 20° WSW 00:23:02 20° WSW visible
19 Jul -3.7 21:55:19 10° WNW 21:58:40 81° NNE 22:02:01 10° E visible
19 Jul -2.9 23:32:09 10° W 23:35:12 33° SSW 23:35:35 32° SSW visible
20 Jul -3.4 22:43:04 10° WNW 22:46:18 48° SSW 22:48:10 22° SE visible
21 Jul -3.7 21:54:02 10° WNW 21:57:21 67° SSW 22:00:40 10° ESE visible
21 Jul -1.8 23:31:22 10° W 23:33:36 17° SW 23:33:36 17° SW visible
22 Jul -2.3 22:41:57 10° W 22:44:46 25° SW 22:46:15 18° S visible
